Terminal Aerodrome Forecast
Issued by NWS

Home | Current Version | Previous Version | Text Only | Print | Product List | Glossary On
Versions: 1 2 3 4 5 6 7 8 9 10 11 12 13 14 15 16 17 18 19 20 21
000
FTUS42 KJAX 212300
TAFVQQ
TAF
KVQQ 212335Z 2200/2224 00000KT P6SM FEW250
      TEMPO 2208/2211 3SM BR SCT001
     FM221400 26005KT P6SM SCT250
     FM222000 17005KT P6SM SCT250=

USA.gov is the U.S. government's official web portal to all federal, state and local government web resources and services.